"Period start","avg(HW err(1)/warn(2) (#))","avg(Visibility (m))","avg(Weather code (#))","avg(Precip intensity (mm/h))","min(HW err(1)/warn(2) (#))","max(HW err(1)/warn(2) (#))","std(HW err(1)/warn(2) (#))","med(HW err(1)/warn(2) (#))","min(Visibility (m))","max(Visibility (m))","std(Visibility (m))","med(Visibility (m))","min(Weather code (#))","max(Weather code (#))","std(Weather code (#))","med(Weather code (#))","min(Precip intensity (mm/h))","max(Precip intensity (mm/h))","std(Precip intensity (mm/h))","med(Precip intensity (mm/h))"
2016-03-25 00:00:00,2,36109,0,0.00,2,2,0,2,20597,50000,9477,36248,0,0,0,0,0.00,0.00,0.00,0.00
2016-03-25 00:10:00,2,32182,0,0.00,2,2,0,2,18273,50000,9969,31218,0,0,0,0,0.00,0.00,0.00,0.00
2016-03-25 00:20:00,2,36360,0,0.00,2,2,0,2,23284,50000,7485,35508,0,0,0,0,0.00,0.00,0.00,0.00
2016-03-25 00:30:00,2,45227,0,0.00,2,2,0,2,27494,50000,6597,46990,0,0,0,0,0.00,0.00,0.00,0.00
2016-03-25 00:40:00,2,40430,0,0.00,2,2,0,2,22281,50000,8937,42740,0,0,0,0,0.00,0.00,0.00,0.00
2016-03-25 00:50:00,2,42065,0,0.00,2,2,0,2,30305,50000,6941,39425,0,0,0,0,0.00,0.00,0.00,0.00
2016-03-25 01:00:00,2,41315,0,0.00,2,2,0,2,24431,50000,9743,47207,0,0,0,0,0.00,0.00,0.00,0.00
2016-03-25 01:10:00,2,36113,0,0.00,2,2,0,2,25537,50000,8303,38339,0,0,0,0,0.00,0.00,0.00,0.00
2016-03-25 01:20:00,2,39260,0,0.00,2,2,0,2,25468,50000,8350,38737,0,0,0,0,0.00,0.00,0.00,0.00
2016-03-25 01:30:00,2,35467,0,0.00,2,2,0,2,22164,50000,9507,33598,0,0,0,0,0.00,0.00,0.00,0.00
2016-03-25 01:40:00,2,45138,0,0.00,2,2,0,2,38147,50000,4237,46160,0,0,0,0,0.00,0.00,0.00,0.00
2016-03-25 01:50:00,2,42364,0,0.00,2,2,0,2,19829,50000,9278,44975,0,0,0,0,0.00,0.00,0.00,0.00
2016-03-25 02:00:00,2,44344,0,0.00,2,2,0,2,35229,50000,5289,45386,0,0,0,0,0.00,0.00,0.00,0.00
2016-03-25 02:10:00,2,33668,0,0.00,2,2,0,2,23395,43384,6887,32770,0,0,0,0,0.00,0.00,0.00,0.00
2016-03-25 02:20:00,2,46703,0,0.00,2,2,0,2,37212,50000,4594,49160,0,0,0,0,0.00,0.00,0.00,0.00
2016-03-25 02:30:00,2,42868,0,0.00,2,2,0,2,32893,50000,5346,42295,0,0,0,0,0.00,0.00,0.00,0.00
2016-03-25 02:40:00,2,39870,0,0.00,2,2,0,2,24246,50000,8155,39656,0,0,0,0,0.00,0.00,0.00,0.00
2016-03-25 02:50:00,2,43707,0,0.00,2,2,0,2,28131,50000,6769,45226,0,0,0,0,0.00,0.00,0.00,0.00
2016-03-25 03:00:00,2,40424,0,0.00,2,2,0,2,29218,50000,6718,42257,0,0,0,0,0.00,0.00,0.00,0.00
2016-03-25 03:10:00,2,37563,0,0.00,2,2,0,2,22989,50000,9087,39980,0,0,0,0,0.00,0.00,0.00,0.00
2016-03-25 03:20:00,2,35227,0,0.00,2,2,0,2,24211,50000,8995,34268,0,0,0,0,0.00,0.00,0.00,0.00
2016-03-25 03:30:00,2,43183,0,0.00,2,2,0,2,31996,50000,5899,43720,0,0,0,0,0.00,0.00,0.00,0.00
2016-03-25 03:40:00,2,42720,0,0.00,2,2,0,2,36225,50000,5437,40368,0,0,0,0,0.00,0.00,0.00,0.00
2016-03-25 03:50:00,2,35940,0,0.00,2,2,0,2,16476,49794,9221,38152,0,0,0,0,0.00,0.00,0.00,0.00
2016-03-25 04:00:00,2,37914,0,0.00,2,2,0,2,26988,50000,7941,35690,0,0,0,0,0.00,0.00,0.00,0.00
2016-03-25 04:10:00,2,41814,0,0.00,2,2,0,2,37079,50000,5373,38184,0,0,0,0,0.00,0.00,0.00,0.00
2016-03-25 04:20:00,2,42733,0,0.00,2,2,0,2,25801,50000,7311,45426,0,0,0,0,0.00,0.00,0.00,0.00
2016-03-25 04:30:00,2,45093,0,0.00,2,2,0,2,34435,50000,5499,47789,0,0,0,0,0.00,0.00,0.00,0.00
2016-03-25 04:40:00,2,45577,0,0.00,2,2,0,2,35901,50000,4631,46502,0,0,0,0,0.00,0.00,0.00,0.00
2016-03-25 04:50:00,2,48315,0,0.00,2,2,0,2,38530,50000,3441,50000,0,0,0,0,0.00,0.00,0.00,0.00
2016-03-25 05:00:00,2,40972,0,0.00,2,2,0,2,28878,48321,5756,42566,0,0,0,0,0.00,0.00,0.00,0.00
2016-03-25 05:10:00,2,42780,0,0.00,2,2,0,2,33297,50000,5458,44340,0,0,0,0,0.00,0.00,0.00,0.00
2016-03-25 05:20:00,2,45354,0,0.00,2,2,0,2,41004,50000,3452,44494,0,0,0,0,0.00,0.00,0.00,0.00
2016-03-25 05:30:00,2,38528,0,0.00,2,2,0,2,27446,50000,7624,38889,0,0,0,0,0.00,0.00,0.00,0.00
2016-03-25 05:40:00,2,35746,0,0.00,2,2,0,2,27561,50000,6815,34084,0,0,0,0,0.00,0.00,0.00,0.00
2016-03-25 05:50:00,2,44673,0,0.00,2,2,0,2,39039,50000,4576,44384,0,0,0,0,0.00,0.00,0.00,0.00
2016-03-25 06:00:00,2,45017,0,0.00,2,2,0,2,35766,50000,4901,46992,0,0,0,0,0.00,0.00,0.00,0.00
2016-03-25 06:10:00,2,43546,0,0.00,2,2,0,2,30878,50000,6490,46898,0,0,0,0,0.00,0.00,0.00,0.00
"Period start","avg(HW err(1)/warn(2) (#))","avg(Visibility (m))","avg(Weather code (#))","avg(Precip intensity (mm/h))","min(HW err(1)/warn(2) (#))","max(HW err(1)/warn(2) (#))","std(HW err(1)/warn(2) (#))","med(HW err(1)/warn(2) (#))","min(Visibility (m))","max(Visibility (m))","std(Visibility (m))","med(Visibility (m))","min(Weather code (#))","max(Weather code (#))","std(Weather code (#))","med(Weather code (#))","min(Precip intensity (mm/h))","max(Precip intensity (mm/h))","std(Precip intensity (mm/h))","med(Precip intensity (mm/h))"
2016-03-25 08:10:00,2,37883,63,0.03,1,2,0,2,21254,50000,8424,40064,0,71,22,71,0.00,0.15,0.05,0.00
2016-03-25 08:20:00,2,46786,0,0.00,2,2,0,2,41589,50000,2873,47330,0,0,0,0,0.00,0.00,0.00,0.00
2016-03-25 08:30:00,2,42288,57,0.03,2,2,0,2,28970,50000,7658,43952,0,71,28,71,0.00,0.25,0.08,0.00
2016-03-25 08:40:00,2,49798,0,0.00,2,2,0,2,47981,50000,606,50000,0,0,0,0,0.00,0.00,0.00,0.00
2016-03-25 08:50:00,2,49790,0,0.00,2,2,0,2,48572,50000,453,50000,0,0,0,0,0.00,0.00,0.00,0.00
2016-03-25 09:00:00,2,48757,0,0.00,2,2,0,2,44450,50000,1987,50000,0,0,0,0,0.00,0.00,0.00,0.00
2016-03-25 09:10:00,2,48402,0,0.00,2,2,0,2,40161,50000,3052,50000,0,0,0,0,0.00,0.00,0.00,0.00
2016-03-25 09:20:00,2,49957,0,0.00,2,2,0,2,49569,50000,129,50000,0,0,0,0,0.00,0.00,0.00,0.00
2016-03-25 09:30:00,2,50000,0,0.00,2,2,0,2,50000,50000,0,50000,0,0,0,0,0.00,0.00,0.00,0.00
2016-03-25 09:40:00,2,49935,0,0.00,2,2,0,2,49352,50000,194,50000,0,0,0,0,0.00,0.00,0.00,0.00
2016-03-25 09:50:00,2,50000,0,0.00,2,2,0,2,50000,50000,0,50000,0,0,0,0,0.00,0.00,0.00,0.00
2016-03-25 10:00:00,2,50000,0,0.00,2,2,0,2,50000,50000,0,50000,0,0,0,0,0.00,0.00,0.00,0.00
2016-03-25 10:10:00,2,50000,0,0.00,2,2,0,2,50000,50000,0,50000,0,0,0,0,0.00,0.00,0.00,0.00
2016-03-25 10:20:00,2,50000,0,0.00,2,2,0,2,50000,50000,0,50000,0,0,0,0,0.00,0.00,0.00,0.00
2016-03-25 10:30:00,2,50000,0,0.00,2,2,0,2,50000,50000,0,50000,0,0,0,0,0.00,0.00,0.00,0.00
2016-03-25 10:40:00,2,50000,0,0.00,2,2,0,2,50000,50000,0,50000,0,0,0,0,0.00,0.00,0.00,0.00
2016-03-25 10:50:00,2,50000,0,0.00,2,2,0,2,50000,50000,0,50000,0,0,0,0,0.00,0.00,0.00,0.00
2016-03-25 11:00:00,2,50000,0,0.00,2,2,0,2,50000,50000,0,50000,0,0,0,0,0.00,0.00,0.00,0.00
2016-03-25 11:10:00,2,50000,0,0.00,2,2,0,2,50000,50000,0,50000,0,0,0,0,0.00,0.00,0.00,0.00
2016-03-25 11:20:00,2,49905,0,0.00,2,2,0,2,49048,50000,286,50000,0,0,0,0,0.00,0.00,0.00,0.00
2016-03-25 11:30:00,2,50000,0,0.00,2,2,0,2,50000,50000,0,50000,0,0,0,0,0.00,0.00,0.00,0.00
2016-03-25 11:40:00,2,50000,0,0.00,2,2,0,2,50000,50000,0,50000,0,0,0,0,0.00,0.00,0.00,0.00
2016-03-25 11:50:00,2,50000,0,0.00,2,2,0,2,50000,50000,0,50000,0,0,0,0,0.00,0.00,0.00,0.00
2016-03-25 12:00:00,2,50000,0,0.00,2,2,0,2,50000,50000,0,50000,0,0,0,0,0.00,0.00,0.00,0.00
2016-03-25 12:10:00,2,50000,0,0.00,2,2,0,2,50000,50000,0,50000,0,0,0,0,0.00,0.00,0.00,0.00
2016-03-25 12:20:00,2,50000,0,0.00,2,2,0,2,50000,50000,0,50000,0,0,0,0,0.00,0.00,0.00,0.00
2016-03-25 12:30:00,2,50000,0,0.00,2,2,0,2,50000,50000,0,50000,0,0,0,0,0.00,0.00,0.00,0.00
2016-03-25 12:40:00,2,50000,0,0.00,2,2,0,2,50000,50000,0,50000,0,0,0,0,0.00,0.00,0.00,0.00
2016-03-25 12:50:00,2,50000,0,0.00,2,2,0,2,50000,50000,0,50000,0,0,0,0,0.00,0.00,0.00,0.00
2016-03-25 13:00:00,2,49992,0,0.00,2,2,0,2,49920,50000,24,50000,0,0,0,0,0.00,0.00,0.00,0.00
2016-03-25 13:10:00,2,50000,0,0.00,2,2,0,2,50000,50000,0,50000,0,0,0,0,0.00,0.00,0.00,0.00
2016-03-25 13:20:00,2,50000,0,0.00,2,2,0,2,50000,50000,0,50000,0,0,0,0,0.00,0.00,0.00,0.00
2016-03-25 13:30:00,2,50000,0,0.00,2,2,0,2,50000,50000,0,50000,0,0,0,0,0.00,0.00,0.00,0.00
2016-03-25 13:40:00,2,49956,0,0.00,2,2,0,2,49559,50000,132,50000,0,0,0,0,0.00,0.00,0.00,0.00
2016-03-25 13:50:00,2,49958,0,0.00,2,2,0,2,49578,50000,127,50000,0,0,0,0,0.00,0.00,0.00,0.00
2016-03-25 14:00:00,2,50000,0,0.00,2,2,0,2,50000,50000,0,50000,0,0,0,0,0.00,0.00,0.00,0.00
2016-03-25 14:10:00,2,50000,0,0.00,2,2,0,2,50000,50000,0,50000,0,0,0,0,0.00,0.00,0.00,0.00
2016-03-25 14:20:00,2,50000,0,0.00,2,2,0,2,50000,50000,0,50000,0,0,0,0,0.00,0.00,0.00,0.00
2016-03-25 14:30:00,2,50000,0,0.00,2,2,0,2,50000,50000,0,50000,0,0,0,0,0.00,0.00,0.00,0.00
2016-03-25 14:40:00,2,49983,0,0.00,2,2,0,2,49828,50000,52,50000,0,0,0,0,0.00,0.00,0.00,0.00
2016-03-25 14:50:00,2,49916,0,0.00,2,2,0,2,49155,50000,254,50000,0,0,0,0,0.00,0.00,0.00,0.00
2016-03-25 15:00:00,2,50000,0,0.00,2,2,0,2,50000,50000,0,50000,0,0,0,0,0.00,0.00,0.00,0.00
2016-03-25 15:10:00,2,50000,0,0.00,2,2,0,2,50000,50000,0,50000,0,0,0,0,0.00,0.00,0.00,0.00
2016-03-25 15:20:00,2,50000,0,0.00,2,2,0,2,50000,50000,0,50000,0,0,0,0,0.00,0.00,0.00,0.00
2016-03-25 15:30:00,2,49934,0,0.00,2,2,0,2,49337,50000,199,50000,0,0,0,0,0.00,0.00,0.00,0.00
2016-03-25 15:40:00,2,50000,0,0.00,2,2,0,2,50000,50000,0,50000,0,0,0,0,0.00,0.00,0.00,0.00
2016-03-25 15:50:00,2,49933,0,0.00,2,2,0,2,49327,50000,202,50000,0,0,0,0,0.00,0.00,0.00,0.00
2016-03-25 16:00:00,2,49718,0,0.00,2,2,0,2,47175,50000,848,50000,0,0,0,0,0.00,0.00,0.00,0.00
2016-03-25 16:10:00,2,50000,0,0.00,2,2,0,2,50000,50000,0,50000,0,0,0,0,0.00,0.00,0.00,0.00
2016-03-25 16:20:00,2,50000,0,0.00,2,2,0,2,50000,50000,0,50000,0,0,0,0,0.00,0.00,0.00,0.00
2016-03-25 16:30:00,2,50000,0,0.00,2,2,0,2,50000,50000,0,50000,0,0,0,0,0.00,0.00,0.00,0.00
2016-03-25 16:40:00,2,50000,0,0.00,2,2,0,2,50000,50000,0,50000,0,0,0,0,0.00,0.00,0.00,0.00
2016-03-25 16:50:00,2,50000,0,0.00,2,2,0,2,50000,50000,0,50000,0,0,0,0,0.00,0.00,0.00,0.00
2016-03-25 17:00:00,2,50000,0,0.00,2,2,0,2,50000,50000,0,50000,0,0,0,0,0.00,0.00,0.00,0.00
2016-03-25 17:10:00,2,50000,0,0.00,2,2,0,2,50000,50000,0,50000,0,0,0,0,0.00,0.00,0.00,0.00
2016-03-25 17:20:00,2,50000,0,0.00,2,2,0,2,50000,50000,0,50000,0,0,0,0,0.00,0.00,0.00,0.00
2016-03-25 17:30:00,2,50000,0,0.00,2,2,0,2,50000,50000,0,50000,0,0,0,0,0.00,0.00,0.00,0.00
2016-03-25 17:40:00,2,50000,0,0.00,2,2,0,2,50000,50000,0,50000,0,0,0,0,0.00,0.00,0.00,0.00
2016-03-25 17:50:00,2,50000,0,0.00,2,2,0,2,50000,50000,0,50000,0,0,0,0,0.00,0.00,0.00,0.00
2016-03-25 18:00:00,2,50000,0,0.00,2,2,0,2,50000,50000,0,50000,0,0,0,0,0.00,0.00,0.00,0.00
2016-03-25 18:10:00,2,50000,0,0.00,2,2,0,2,50000,50000,0,50000,0,0,0,0,0.00,0.00,0.00,0.00
2016-03-25 18:20:00,2,50000,0,0.00,2,2,0,2,50000,50000,0,50000,0,0,0,0,0.00,0.00,0.00,0.00
2016-03-25 18:30:00,2,49734,0,0.00,2,2,0,2,48669,50000,531,50000,0,0,0,0,0.00,0.00,0.00,0.00
2016-03-25 18:40:00,2,49826,0,0.00,2,2,0,2,48256,50000,523,50000,0,0,0,0,0.00,0.00,0.00,0.00
2016-03-25 18:50:00,2,50000,0,0.00,2,2,0,2,50000,50000,0,50000,0,0,0,0,0.00,0.00,0.00,0.00
2016-03-25 19:00:00,2,50000,0,0.00,2,2,0,2,50000,50000,0,50000,0,0,0,0,0.00,0.00,0.00,0.00
2016-03-25 19:10:00,2,50000,0,0.00,2,2,0,2,50000,50000,0,50000,0,0,0,0,0.00,0.00,0.00,0.00
2016-03-25 19:20:00,2,50000,0,0.00,2,2,0,2,50000,50000,0,50000,0,0,0,0,0.00,0.00,0.00,0.00
2016-03-25 19:30:00,2,50000,0,0.00,2,2,0,2,50000,50000,0,50000,0,0,0,0,0.00,0.00,0.00,0.00
2016-03-25 19:40:00,2,50000,0,0.00,2,2,0,2,50000,50000,0,50000,0,0,0,0,0.00,0.00,0.00,0.00
2016-03-25 19:50:00,2,49963,0,0.00,2,2,0,2,49626,50000,112,50000,0,0,0,0,0.00,0.00,0.00,0.00
2016-03-25 20:00:00,2,50000,0,0.00,2,2,0,2,50000,50000,0,50000,0,0,0,0,0.00,0.00,0.00,0.00
2016-03-25 20:10:00,2,49770,0,0.00,2,2,0,2,47701,50000,690,50000,0,0,0,0,0.00,0.00,0.00,0.00
2016-03-25 20:20:00,2,50000,0,0.00,2,2,0,2,50000,50000,0,50000,0,0,0,0,0.00,0.00,0.00,0.00
2016-03-25 20:30:00,2,49894,0,0.00,2,2,0,2,48936,50000,319,50000,0,0,0,0,0.00,0.00,0.00,0.00
2016-03-25 20:40:00,2,50000,0,0.00,2,2,0,2,50000,50000,0,50000,0,0,0,0,0.00,0.00,0.00,0.00
2016-03-25 20:50:00,2,50000,0,0.00,2,2,0,2,50000,50000,0,50000,0,0,0,0,0.00,0.00,0.00,0.00
2016-03-25 21:00:00,2,50000,0,0.00,2,2,0,2,50000,50000,0,50000,0,0,0,0,0.00,0.00,0.00,0.00
2016-03-25 21:10:00,2,49779,0,0.00,2,2,0,2,48111,50000,564,50000,0,0,0,0,0.00,0.00,0.00,0.00
2016-03-25 21:20:00,2,49917,0,0.00,2,2,0,2,49172,50000,248,50000,0,0,0,0,0.00,0.00,0.00,0.00
2016-03-25 21:30:00,2,49044,0,0.00,2,2,0,2,44704,50000,1752,50000,0,0,0,0,0.00,0.00,0.00,0.00
2016-03-25 21:40:00,2,50000,0,0.00,2,2,0,2,50000,50000,0,50000,0,0,0,0,0.00,0.00,0.00,0.00
2016-03-25 21:50:00,2,50000,0,0.00,2,2,0,2,50000,50000,0,50000,0,0,0,0,0.00,0.00,0.00,0.00
2016-03-25 22:00:00,2,48943,0,0.00,2,2,0,2,44867,50000,1890,50000,0,0,0,0,0.00,0.00,0.00,0.00
2016-03-25 22:10:00,2,49602,0,0.00,2,2,0,2,47888,50000,739,50000,0,0,0,0,0.00,0.00,0.00,0.00
2016-03-25 22:20:00,2,49883,0,0.00,2,2,0,2,48943,50000,332,50000,0,0,0,0,0.00,0.00,0.00,0.00
2016-03-25 22:30:00,2,49019,0,0.00,2,2,0,2,45351,50000,1595,50000,0,0,0,0,0.00,0.00,0.00,0.00
2016-03-25 22:40:00,2,49779,0,0.00,2,2,0,2,48318,50000,525,50000,0,0,0,0,0.00,0.00,0.00,0.00
2016-03-25 22:50:00,2,49477,0,0.00,2,2,0,2,46385,50000,1123,50000,0,0,0,0,0.00,0.00,0.00,0.00
2016-03-25 23:00:00,2,48191,0,0.00,2,2,0,2,41403,50000,2734,50000,0,0,0,0,0.00,0.00,0.00,0.00
2016-03-25 23:10:00,2,49095,0,0.00,2,2,0,2,46253,50000,1408,50000,0,0,0,0,0.00,0.00,0.00,0.00
2016-03-25 23:20:00,2,45305,0,0.00,2,2,0,2,37597,50000,4101,44842,0,0,0,0,0.00,0.00,0.00,0.00
2016-03-25 23:30:00,2,41307,0,0.00,2,2,0,2,29309,50000,8564,43142,0,0,0,0,0.00,0.00,0.00,0.00
2016-03-25 23:40:00,2,37509,0,0.00,2,2,0,2,23277,50000,8917,40338,0,0,0,0,0.00,0.00,0.00,0.00
2016-03-25 23:50:00,2,40195,0,0.00,2,2,0,2,24572,50000,8603,41112,0,0,0,0,0.00,0.00,0.00,0.00
